Home   Weather   Kerman   Past weeks

Flag for Iran Past Weather in Kerman, Iran — Yesterday and Last 2 Weeks

Now
55 °F

Scattered clouds.


Feels Like: 54 °F
Forecast: 35 / 60 °F
Wind: 7 mph from North

Location: Kerman Airport

Current Time: Feb 27, 2017 at 12:40:07 pm

Latest Report: Feb 27, 2017 at 11:30 am


Visibility: N/A

Pressure: 30.15 "Hg (24.43 "Hg at 1762m altitude)

Humidity: 38%

Dew Point: 30 °F

Location of KermanLocation

Past Weather in Kerman — Graph

°F

Kerman Temperature Yesterday

Maximum temperature yesterday: 61 °F (at 11:30 am)
Minimum temperature yesterday: 37 °F (at 5:30 am)
Average temperature yesterday: 48 °F

High & Low Weather Summary for the Past Weeks

 TemperatureHumidityPressure
High64 °F (Feb 12, 1:30 pm)100% (Feb 14, 12:30 pm)30.42 "Hg (Feb 14, 12:30 pm)
Low25 °F (Feb 21, 6:30 am)8% (Feb 22, 4:30 pm)29.83 "Hg (Feb 17, 3:30 pm)
Average46 °F63%30.15 "Hg
* Reported Feb 12 11:30 am — Feb 27 11:30 am, Kerman, Weather by CustomWeather, © 2017

Note: Actual official high and low records may vary slightly from our data, if they occured in-between our weather recording intervals... More about our weather records

Advertising

Kerman Weather History for the Previous 24 Hours

Scroll right to see more
 ConditionsComfort  
Time TempWeatherWind HumidityBarometerVisibility
11:30 am
Mon, Feb 27
55 °FScattered clouds.7 mph38%30.15 "HgN/A
10:30 am52 °FScattered clouds.7 mph47%30.18 "HgN/A
9:30 am48 °FPartly sunny.5 mph66%30.18 "HgN/A
8:30 am43 °FPartly sunny.5 mph87%30.18 "Hg6 mi
7:30 am41 °FPartly sunny.No wind87%30.15 "Hg5 mi
6:30 am41 °FPassing clouds.No wind81%30.12 "HgN/A
5:30 am39 °FPassing clouds.No wind87%30.09 "HgN/A
4:30 am39 °FPassing clouds.5 mph93%30.09 "HgN/A
3:30 am37 °FPassing clouds.No wind93%30.07 "HgN/A
2:30 am39 °FPassing clouds.No wind87%30.07 "HgN/A
1:30 am41 °FPassing clouds.No wind87%30.09 "HgN/A
12:30 am41 °FPassing clouds.5 mph87%30.09 "HgN/A
11:30 pm
Sun, Feb 26
41 °FPassing clouds.No wind87%30.12 "HgN/A
10:30 pm43 °FPassing clouds.No wind76%30.12 "HgN/A
9:30 pm43 °FPassing clouds.No wind76%30.12 "HgN/A
8:30 pm45 °FPassing clouds.No wind71%30.12 "HgN/A
7:30 pm46 °FRain showers. Passing clouds.7 mph66%30.09 "Hg5 mi
6:30 pm45 °FRain showers. Passing clouds.16 mph76%30.12 "HgN/A
5:30 pm50 °FPartly sunny.12 mph58%30.09 "HgN/A
4:30 pm54 °FScattered clouds.12 mph47%30.07 "HgN/A
3:30 pm54 °FBroken clouds.14 mph44%30.07 "HgN/A
2:30 pm57 °FBroken clouds.7 mph39%30.09 "HgN/A
1:30 pm55 °FBroken clouds.12 mph38%30.09 "HgN/A
12:30 pm59 °FBroken clouds.9 mph27%30.12 "HgN/A
Weather by CustomWeather, © 2017

See weather overviewHow to use our weather pages